Weather in Aromashevo

Russia / Tyumen Oblast     56°51′44″N   68°38′33″E
temp.,
°C
wind,
m/s
gust,
m/s
humid.,
%
clouds,
%
prec.,
mm/h
press.,
hPa
HPBL,
m
11 april, sun
sun1123:00+2s3898100 0.0 1040203
02:00+1ssw389888 0.0 1040216
05:00−1s389464 0.0 1040156
08:00+2ssw5108477 0.0 1040275
11:00+6ssw61069100 0.0 1039431
14:00+8ssw71165100 0.0 1037515
17:00+7ssw61369100 0.0 1036443
20:00+5ssw6147981 0.0 1035316
12 april, mon
mon1223:00+3sw6148016 0.0 1034279
02:00+3sw6148272 0.0 1033267
05:00+2sw51088100 0.0 1033196
08:00+5wsw4889100 0.0 1032220
11:00+6w3797100 0.2 1033203
14:00+10nw5773100 0.0 1034931
17:00+11nnw4758100 0.0 1034796
20:00+7nnw3874100 0.0 1036141
13 april, tue
tue1323:00+4n337670 0.0 103843
02:00+3n22715 0.0 103911
05:00+2w22730 0.0 104010
08:00+5wnw24620 0.0 1040186
11:00+9w45390 0.0 1040878
14:00+12w45335 0.0 10391184
17:00+12w56365 0.0 10371104
20:00+8wsw35570 0.0 103666
14 april, wed
wed1423:00+6sw497399 0.0 1035143
02:00+5sw498113 0.0 1034152
05:00+4sw41183100 0.0 1033179
08:00+7sw5127482 0.0 1032343
11:00+13wsw7105994 0.0 1029618
14:00+16wsw795795 0.0 10271065
17:00+16wsw6957100 0.0 10251313
20:00+12wsw4875100 0.0 1024133
15 april, thu
thu1523:00+10wsw488446 0.0 1023142
02:00+9wsw478821 0.0 1022110
05:00+7wsw488925 0.0 1021133
08:00+10wsw5106910 0.0 1020300
11:00+15w69436 0.0 10191047
14:00+17w68375 0.0 10181612
17:00+17w573752 0.0 10171578
20:00+13wsw345647 0.0 101656